sat.trackr.live / text

‹ back to catalog

ONEWEB-0301

NORAD 49090 · 2021-075R

PAYLOAD ACTIVE UNKNOWN

§ Identity

Operator
Country
UK
Launch date
2021-08-21
Launch site
TYMSC
Launch vehicle
Mass (kg)
RCS (m²)

Purposes: comms

External: N2YO · Heavens-Above · Gunter

§ Orbital elements

Epoch: 2026-09-14T10:31:00.978528Z

Period
109.72 min
Inclination
87.8989°
Eccentricity
0.0002230
Mean motion
13.12441140 rev/d
Perigee alt
1,212.0 km
Apogee alt
1,215.4 km
Semi-major
7,591.9 km
B*
1.0104e-3
RAAN
332.9377°
Arg perigee
98.7413°
Mean anomaly
261.3968°
Rev number
24,627

§ Raw data

ONEWEB-03011 49090U 21075R   26257.43820577  .00000376  00000+0  10104-2 0  99982 49090  87.8989 332.9377 0002230  98.7413 261.3968 13.12441140246273

JSON: /api/v1/satellites/49090 · /tle

For live sub-satellite position, see the globe view (requires WebGL).

§ Visibility from observer

Set your observer location to see the next 7 days of passes ≥ 10°. The values pass through the URL so the page stays shareable.

No JS? Fill the form by hand. The geolocation button needs JavaScript.